QPF
0.00 0.00 0.00 0.00 0.00 0.00 0.00 0.00 0.00 0.00 0.00 0.00 0.00 0.00 0.00 0.00 0.00 0.00 0.00 0.00 0.00 0.00 0.00 0.00 0.00 0.00 0.00 0.00 0.00 0.00 0.00 0.00 0.01 0.02 0.03 0.06 0.10 0.13
0.00 0.00 0.00 0.00 0.00 0.00 0.00 0.00 0.00 0.00 0.00 0.00 0.00 0.00 0.00 0.00 0.00 0.00 0.00 0.00 0.00 0.00 0.00 0.00 0.00 0.00 0.00 0.00 0.00 0.00 0.00 0.00 0.00 0.00 0.01 0.02 0.03 0.04
0.00 0.00 0.00 0.00 0.00 0.00 0.00 0.00 0.00 0.00 0.00 0.00 0.00 0.00 0.00 0.00 0.00 0.00 0.00 0.00 0.00 0.00 0.00 0.00 0.00 0.00 0.00 0.00 0.00 0.00 0.00 0.00 0.00 0.00 0.01 0.02 0.02 0.03
0.00 0.00 0.00 0.00 0.00 0.00 0.00 0.00 0.00 0.00 0.00 0.00 0.00 0.00 0.00 0.00 0.00 0.00 0.00 0.00 0.00 0.00 0.00 0.00 0.00 0.00 0.00 0.00 0.00 0.00 0.00 0.00 0.00 0.00 0.02 0.04 0.06 0.07
0.00 0.00 0.00 0.00 0.00 0.00 0.00 0.00 0.00 0.00 0.00 0.00 0.00 0.00 0.00 0.00 0.00 0.00 0.00 0.00 0.00 0.00 0.00 0.00 0.00 0.00 0.00 0.00 0.00 0.00 0.00 0.00 0.00 0.00 0.00 0.00 0.01 0.04
0.00 0.00 0.00 0.00 0.00 0.00 0.00 0.00 0.00 0.00 0.00 0.00 0.00 0.00 0.00 0.00 0.00 0.00 0.00 0.00 0.00 0.00 0.00 0.00 0.00 0.00 0.00 0.00 0.00 0.00 0.00 0.00 0.00 0.00 0.00 0.00 0.00 0.00
0.00 0.00 0.00 0.00 0.00 0.00 0.00 0.00 0.00 0.00 0.00 0.00 0.00 0.00 0.00 0.00 0.00 0.00 0.00 0.00 0.00 0.00 0.00 0.00 0.00 0.00 0.00 0.00 0.00 0.00 0.00 0.00 0.00 0.00 0.00 0.00 0.00 0.00
0.00 0.00 0.00 0.00 0.00 0.00 0.00 0.00 0.00 0.00 0.00 0.00 0.00 0.00 0.00 0.00 0.00 0.00 0.00 0.00 0.00 0.00 0.00 0.00 0.00 0.00 0.00 0.00 0.00 0.00 0.00 0.00 0.00 0.00 0.00 0.00 0.00 0.00
0.00 0.00 0.00 0.00 0.00 0.00 0.00 0.01 0.00 0.01 0.01 0.01 0.00 0.00 0.00 0.00 0.00 0.00 0.00 0.00 0.00 0.00 0.00 0.00 0.00 0.00 0.00 0.00 0.00 0.00 0.00 0.00 0.00 0.00 0.00 0.00 0.00 0.00
0.01 0.01 0.00 0.00 0.01 0.01 0.00 0.00 0.00 0.00 0.00 0.00 0.00 0.00 0.00 0.00 0.00 0.00 0.00 0.00 0.00 0.00 0.00 0.00 0.00 0.00 0.00 0.00 0.00 0.00 0.00 0.00 0.00 0.00 0.00 0.00 0.00 0.00
0.01 0.01 0.01 0.01 0.01 0.01 0.00 0.00 0.00 0.00 0.00 0.00 0.00 0.00 0.00 0.00 0.00 0.01 0.01 0.01 0.00 0.00 0.00 0.00 0.00 0.00 0.00 0.00 0.00 0.00 0.00 0.00 0.00 0.00 0.00 0.00 0.00 0.00
0.02 0.02 0.02 0.01 0.01 0.01 0.01 0.01 0.00 0.00 0.00 0.00 0.00 0.00 0.01 0.01 0.01 0.01 0.01 0.01 0.01 0.00 0.00 0.00 0.00 0.00 0.00 0.00 0.00 0.00 0.00 0.00 0.00 0.00 0.00 0.00 0.00 0.00
0.03 0.03 0.02 0.02 0.02 0.02 0.01 0.01 0.01 0.01 0.01 0.00 0.00 0.00 0.01 0.01 0.01 0.01 0.01 0.01 0.01 0.00 0.00 0.00 0.00 0.00 0.00 0.00 0.00 0.00 0.00 0.00 0.00 0.00 0.00 0.00 0.00 0.00
0.04 0.04 0.04 0.03 0.03 0.03 0.03 0.02 0.03 0.03 0.02 0.02 0.02 0.02 0.02 0.02 0.02 0.01 0.01 0.01 0.01 0.01 0.00 0.00 0.00 0.01 0.01 0.00 0.00 0.00 0.00 0.00 0.00 0.00 0.00 0.00 0.00 0.00
0.06 0.06 0.06 0.05 0.05 0.04 0.05 0.06 0.06 0.05 0.05 0.04 0.03 0.02 0.02 0.02 0.01 0.01 0.01 0.01 0.01 0.01 0.00 0.01 0.01 0.01 0.01 0.01 0.00 0.00 0.00 0.00 0.00 0.00 0.00 0.00 0.00 0.00
0.06 0.05 0.05 0.04 0.03 0.02 0.02 0.02 0.02 0.02 0.01 0.01 0.01 0.01 0.01 0.01 0.01 0.01 0.01 0.01 0.01 0.00 0.00 0.01 0.01 0.01 0.01 0.01 0.01 0.01 0.01 0.01 0.00 0.01 0.01 0.00 0.00 0.01
0.04 0.03 0.03 0.03 0.03 0.02 0.02 0.02 0.02 0.01 0.01 0.01 0.00 0.00 0.00 0.00 0.00 0.00 0.00 0.01 0.01 0.00 0.00 0.01 0.01 0.01 0.01 0.01 0.01 0.01 0.01 0.01 0.01 0.01 0.01 0.01 0.01 0.01
0.02 0.02 0.02 0.02 0.01 0.01 0.01 0.01 0.01 0.01 0.00 0.00 0.00 0.00 0.00 0.00 0.00 0.00 0.00 0.00 0.00 0.00 0.00 0.01 0.01 0.01 0.01 0.01 0.01 0.01 0.01 0.01 0.01 0.01 0.01 0.01 0.01 0.01
0.01 0.01 0.01 0.01 0.01 0.01 0.01 0.01 0.01 0.01 0.00 0.00 0.00 0.00 0.00 0.00 0.00 0.00 0.00 0.00 0.00 0.00 0.01 0.01 0.02 0.03 0.03 0.01 0.01 0.01 0.01 0.01 0.01 0.01 0.01 0.01 0.00 0.00
0.02 0.01 0.01 0.01 0.02 0.01 0.01 0.01 0.00 0.00 0.01 0.01 0.01 0.01 0.01 0.01 0.01 0.01 0.01 0.01 0.01 0.01 0.01 0.01 0.03 0.04 0.05 0.03 0.02 0.01 0.01 0.02 0.02 0.01 0.01 0.00 0.00 0.01
0.03 0.02 0.02 0.02 0.01 0.01 0.01 0.01 0.01 0.01 0.01 0.01 0.02 0.02 0.02 0.02 0.02 0.02 0.01 0.01 0.01 0.01 0.01 0.01 0.02 0.02 0.03 0.03 0.02 0.01 0.01 0.02 0.02 0.02 0.02 0.02 0.01 0.01
0.02 0.02 0.02 0.02 0.01 0.01 0.01 0.01 0.01 0.02 0.02 0.02 0.02 0.02 0.02 0.02 0.02 0.02 0.02 0.02 0.02 0.01 0.01 0.01 0.01 0.02 0.02 0.02 0.02 0.01 0.01 0.01 0.02 0.02 0.02 0.02 0.02 0.01
0.01 0.01 0.01 0.01 0.01 0.01 0.01 0.01 0.01 0.01 0.01 0.02 0.02 0.02 0.02 0.02 0.01 0.01 0.01 0.02 0.02 0.02 0.01 0.01 0.02 0.02 0.02 0.03 0.03 0.02 0.02 0.02 0.02 0.02 0.02 0.02 0.02 0.01
MSLP
1019.08 1019.21 1019.39 1019.61 1019.85 1020.06 1020.22 1020.31 1020.33 1020.28 1020.17 1020.03 1019.87 1019.72 1019.58 1019.46 1019.36 1019.29 1019.23 1019.19 1019.18 1019.19 1019.22 1019.26 1019.30 1019.33 1019.35 1019.33 1019.27 1019.19 1019.07 1018.95 1018.82 1018.71 1018.63 1018.59 1018.58 1018.61
1018.90 1019.00 1019.15 1019.33 1019.54 1019.74 1019.90 1020.01 1020.07 1020.06 1020.00 1019.90 1019.77 1019.63 1019.48 1019.34 1019.20 1019.07 1018.96 1018.87 1018.81 1018.78 1018.78 1018.80 1018.84 1018.87 1018.90 1018.89 1018.85 1018.78 1018.68 1018.55 1018.43 1018.32 1018.23 1018.17 1018.14 1018.15
1018.75 1018.82 1018.93 1019.08 1019.25 1019.43 1019.58 1019.70 1019.78 1019.80 1019.78 1019.72 1019.62 1019.50 1019.35 1019.19 1019.02 1018.85 1018.69 1018.54 1018.42 1018.34 1018.30 1018.29 1018.31 1018.34 1018.36 1018.37 1018.34 1018.29 1018.21 1018.10 1017.99 1017.89 1017.80 1017.74 1017.71 1017.70
1018.60 1018.65 1018.73 1018.84 1018.98 1019.12 1019.25 1019.37 1019.45 1019.50 1019.51 1019.48 1019.41 1019.31 1019.18 1019.01 1018.83 1018.62 1018.42 1018.22 1018.05 1017.91 1017.82 1017.77 1017.75 1017.75 1017.76 1017.77 1017.75 1017.71 1017.64 1017.56 1017.47 1017.38 1017.31 1017.26 1017.23 1017.23
1018.39 1018.43 1018.49 1018.57 1018.67 1018.78 1018.89 1018.98 1019.06 1019.12 1019.14 1019.14 1019.10 1019.03 1018.92 1018.76 1018.58 1018.36 1018.13 1017.90 1017.68 1017.49 1017.35 1017.24 1017.17 1017.13 1017.11 1017.10 1017.07 1017.03 1016.98 1016.91 1016.84 1016.77 1016.72 1016.69 1016.68 1016.69
1018.08 1018.11 1018.15 1018.21 1018.28 1018.36 1018.43 1018.50 1018.56 1018.61 1018.64 1018.65 1018.64 1018.60 1018.51 1018.39 1018.22 1018.01 1017.78 1017.53 1017.29 1017.06 1016.87 1016.70 1016.58 1016.49 1016.42 1016.37 1016.32 1016.26 1016.21 1016.15 1016.09 1016.05 1016.02 1016.02 1016.03 1016.06
1017.60 1017.63 1017.67 1017.72 1017.77 1017.81 1017.85 1017.89 1017.92 1017.95 1017.98 1017.99 1018.00 1017.98 1017.93 1017.84 1017.71 1017.53 1017.32 1017.09 1016.84 1016.59 1016.36 1016.15 1015.97 1015.82 1015.69 1015.59 1015.50 1015.42 1015.36 1015.30 1015.26 1015.23 1015.23 1015.25 1015.29 1015.34
1016.93 1016.98 1017.03 1017.07 1017.11 1017.13 1017.15 1017.15 1017.15 1017.15 1017.16 1017.17 1017.17 1017.18 1017.16 1017.11 1017.02 1016.90 1016.73 1016.52 1016.28 1016.04 1015.78 1015.54 1015.32 1015.12 1014.94 1014.78 1014.65 1014.54 1014.46 1014.39 1014.36 1014.35 1014.36 1014.41 1014.47 1014.55
1016.10 1016.17 1016.24 1016.30 1016.34 1016.35 1016.34 1016.32 1016.29 1016.26 1016.24 1016.23 1016.23 1016.24 1016.24 1016.23 1016.19 1016.11 1015.99 1015.83 1015.62 1015.39 1015.14 1014.88 1014.63 1014.39 1014.16 1013.97 1013.80 1013.66 1013.55 1013.48 1013.44 1013.44 1013.47 1013.54 1013.63 1013.73
1015.19 1015.29 1015.39 1015.47 1015.52 1015.54 1015.52 1015.48 1015.42 1015.36 1015.31 1015.27 1015.26 1015.26 1015.27 1015.28 1015.27 1015.23 1015.15 1015.03 1014.87 1014.66 1014.42 1014.17 1013.90 1013.64 1013.39 1013.16 1012.96 1012.79 1012.67 1012.58 1012.54 1012.55 1012.59 1012.67 1012.78 1012.89
1014.31 1014.44 1014.57 1014.68 1014.76 1014.79 1014.78 1014.73 1014.66 1014.57 1014.48 1014.41 1014.37 1014.35 1014.34 1014.35 1014.35 1014.33 1014.27 1014.18 1014.04 1013.86 1013.65 1013.40 1013.14 1012.87 1012.61 1012.36 1012.14 1011.96 1011.82 1011.73 1011.68 1011.69 1011.73 1011.82 1011.93 1012.05
1013.56 1013.73 1013.89 1014.03 1014.13 1014.19 1014.19 1014.15 1014.06 1013.95 1013.84 1013.73 1013.64 1013.58 1013.54 1013.51 1013.49 1013.45 1013.40 1013.31 1013.19 1013.03 1012.82 1012.59 1012.34 1012.08 1011.81 1011.57 1011.34 1011.15 1011.00 1010.90 1010.85 1010.85 1010.89 1010.97 1011.07 1011.19
1013.02 1013.21 1013.40 1013.56 1013.70 1013.77 1013.79 1013.76 1013.67 1013.55 1013.40 1013.26 1013.12 1013.00 1012.90 1012.82 1012.74 1012.66 1012.57 1012.46 1012.33 1012.16 1011.96 1011.74 1011.50 1011.25 1010.99 1010.75 1010.53 1010.34 1010.19 1010.08 1010.01 1009.99 1010.02 1010.08 1010.17 1010.27
1012.72 1012.92 1013.12 1013.30 1013.44 1013.54 1013.57 1013.54 1013.45 1013.32 1013.15 1012.97 1012.78 1012.59 1012.42 1012.26 1012.10 1011.95 1011.80 1011.64 1011.46 1011.27 1011.06 1010.83 1010.60 1010.36 1010.12 1009.89 1009.68 1009.49 1009.33 1009.21 1009.13 1009.09 1009.09 1009.13 1009.19 1009.27
1012.64 1012.82 1013.01 1013.18 1013.33 1013.42 1013.46 1013.44 1013.35 1013.20 1013.01 1012.79 1012.55 1012.29 1012.04 1011.78 1011.54 1011.29 1011.05 1010.81 1010.58 1010.34 1010.10 1009.86 1009.63 1009.40 1009.17 1008.95 1008.75 1008.57 1008.41 1008.27 1008.17 1008.11 1008.08 1008.08 1008.12 1008.17
1012.71 1012.86 1013.02 1013.16 1013.28 1013.36 1013.39 1013.35 1013.26 1013.10 1012.89 1012.63 1012.34 1012.02 1011.69 1011.34 1010.99 1010.65 1010.31 1009.98 1009.67 1009.37 1009.09 1008.83 1008.59 1008.36 1008.14 1007.94 1007.75 1007.57 1007.41 1007.27 1007.15 1007.05 1006.99 1006.96 1006.96 1006.99
1012.85 1012.96 1013.06 1013.16 1013.24 1013.28 1013.28 1013.22 1013.11 1012.93 1012.70 1012.42 1012.08 1011.71 1011.30 1010.87 1010.43 1009.99 1009.55 1009.13 1008.74 1008.37 1008.04 1007.75 1007.49 1007.26 1007.05 1006.86 1006.68 1006.51 1006.35 1006.20 1006.07 1005.95 1005.86 1005.79 1005.76 1005.75
1013.02 1013.06 1013.10 1013.14 1013.15 1013.14 1013.09 1013.00 1012.86 1012.66 1012.41 1012.10 1011.74 1011.32 1010.85 1010.35 1009.83 1009.30 1008.77 1008.27 1007.79 1007.36 1006.98 1006.65 1006.37 1006.13 1005.92 1005.75 1005.58 1005.43 1005.27 1005.13 1004.98 1004.85 1004.73 1004.63 1004.57 1004.53
1013.18 1013.16 1013.13 1013.09 1013.03 1012.95 1012.85 1012.71 1012.53 1012.31 1012.04 1011.71 1011.31 1010.86 1010.35 1009.80 1009.22 1008.61 1008.01 1007.42 1006.88 1006.38 1005.95 1005.58 1005.27 1005.03 1004.82 1004.65 1004.50 1004.36 1004.22 1004.08 1003.93 1003.79 1003.65 1003.53 1003.44 1003.38
1013.33 1013.25 1013.15 1013.03 1012.90 1012.76 1012.59 1012.40 1012.19 1011.93 1011.64 1011.28 1010.87 1010.39 1009.86 1009.26 1008.63 1007.97 1007.30 1006.65 1006.04 1005.48 1005.00 1004.58 1004.25 1003.98 1003.77 1003.60 1003.46 1003.34 1003.21 1003.08 1002.94 1002.80 1002.66 1002.52 1002.41 1002.33
1013.50 1013.36 1013.20 1013.02 1012.82 1012.60 1012.38 1012.14 1011.88 1011.59 1011.27 1010.90 1010.46 1009.97 1009.40 1008.78 1008.11 1007.40 1006.68 1005.97 1005.30 1004.69 1004.15 1003.69 1003.32 1003.02 1002.80 1002.63 1002.49 1002.37 1002.26 1002.14 1002.01 1001.87 1001.73 1001.60 1001.47 1001.37
1013.69 1013.51 1013.30 1013.06 1012.80 1012.53 1012.25 1011.95 1011.65 1011.33 1010.98 1010.58 1010.13 1009.62 1009.03 1008.38 1007.68 1006.93 1006.16 1005.40 1004.68 1004.01 1003.41 1002.91 1002.49 1002.16 1001.91 1001.72 1001.58 1001.46 1001.35 1001.24 1001.12 1000.99 1000.86 1000.72 1000.59 1000.47
1013.90 1013.69 1013.44 1013.15 1012.85 1012.52 1012.19 1011.85 1011.51 1011.15 1010.76 1010.34 1009.87 1009.34 1008.73 1008.06 1007.32 1006.54 1005.74 1004.93 1004.16 1003.44 1002.79 1002.23 1001.76 1001.39 1001.10 1000.88 1000.71 1000.58 1000.47 1000.36 1000.25 1000.13 1000.00 999.86 999.73 999.60
Thickness
5704 5703 5701 5700 5699 5697 5695 5693 5688 5683 5682 5684 5686 5687 5686 5685 5685 5683 5683 5682 5681 5680 5680 5679 5679 5678 5678 5677 5677 5676 5676 5676 5676 5676 5676 5676 5677 5678
5701 5700 5698 5697 5695 5694 5692 5689 5688 5684 5680 5681 5681 5683 5682 5682 5681 5680 5679 5679 5678 5677 5677 5676 5676 5675 5675 5674 5674 5673 5673 5672 5672 5672 5672 5673 5673 5674
5698 5697 5695 5694 5692 5690 5688 5686 5684 5681 5678 5678 5677 5678 5678 5678 5678 5677 5676 5675 5675 5674 5673 5673 5672 5672 5671 5671 5670 5670 5669 5669 5669 5669 5669 5669 5669 5670
5696 5694 5693 5691 5689 5687 5685 5683 5681 5678 5676 5674 5674 5674 5674 5674 5673 5673 5673 5672 5671 5671 5670 5670 5669 5668 5668 5667 5667 5666 5666 5665 5665 5665 5665 5665 5665 5665
5694 5692 5691 5688 5686 5684 5682 5680 5678 5676 5673 5671 5670 5669 5669 5669 5668 5668 5668 5668 5668 5668 5667 5666 5665 5665 5664 5663 5663 5662 5662 5661 5661 5660 5660 5660 5660 5660
5693 5691 5689 5686 5685 5682 5679 5677 5674 5671 5669 5666 5665 5665 5664 5664 5662 5662 5663 5663 5663 5663 5663 5662 5661 5660 5660 5659 5658 5658 5657 5657 5656 5656 5655 5655 5655 5655
5690 5688 5687 5685 5683 5680 5678 5675 5671 5668 5665 5663 5661 5660 5660 5658 5658 5658 5657 5657 5657 5657 5657 5657 5656 5656 5655 5655 5654 5654 5652 5652 5651 5650 5650 5650 5649 5649
5686 5685 5683 5681 5680 5678 5675 5673 5669 5665 5662 5660 5658 5656 5657 5655 5654 5652 5650 5649 5651 5652 5649 5651 5650 5650 5650 5649 5649 5649 5647 5646 5646 5645 5644 5644 5644 5644
5683 5681 5679 5679 5676 5674 5672 5669 5666 5664 5661 5658 5655 5654 5653 5651 5648 5646 5644 5643 5644 5645 5641 5645 5645 5644 5645 5644 5644 5643 5641 5640 5640 5639 5638 5638 5637 5637
5680 5677 5675 5673 5671 5668 5666 5663 5661 5659 5656 5654 5652 5651 5649 5647 5643 5641 5639 5637 5638 5637 5633 5635 5639 5638 5639 5638 5637 5636 5635 5634 5633 5632 5631 5631 5630 5630
5676 5673 5670 5667 5665 5662 5658 5656 5654 5653 5651 5648 5646 5645 5643 5640 5636 5632 5630 5628 5630 5632 5627 5625 5630 5630 5631 5631 5630 5628 5627 5626 5625 5624 5623 5622 5622 5621
5670 5667 5664 5661 5658 5655 5651 5649 5646 5646 5643 5641 5638 5636 5634 5632 5629 5625 5623 5620 5620 5622 5622 5617 5619 5617 5620 5623 5621 5618 5616 5615 5615 5614 5614 5613 5612 5611
5665 5662 5659 5655 5651 5648 5645 5642 5640 5636 5633 5630 5629 5627 5626 5624 5622 5618 5615 5612 5611 5612 5612 5606 5607 5605 5604 5609 5610 5608 5605 5604 5603 5603 5603 5603 5602 5600
5659 5656 5652 5648 5644 5640 5637 5634 5630 5625 5623 5620 5619 5618 5617 5616 5614 5611 5608 5605 5603 5602 5601 5596 5595 5594 5592 5594 5597 5598 5595 5592 5591 5591 5591 5592 5591 5592
5651 5647 5643 5639 5636 5632 5628 5624 5620 5616 5613 5610 5609 5608 5607 5606 5603 5601 5599 5596 5594 5592 5590 5586 5583 5582 5579 5580 5583 5584 5583 5583 5580 5579 5580 5580 5581 5581
5640 5636 5632 5628 5625 5622 5618 5615 5611 5607 5603 5601 5599 5598 5595 5593 5591 5588 5586 5584 5583 5584 5580 5575 5571 5568 5568 5568 5568 5570 5570 5570 5571 5568 5567 5569 5570 5570
5630 5625 5621 5618 5614 5611 5608 5604 5600 5596 5592 5590 5586 5585 5583 5581 5578 5575 5572 5569 5567 5569 5569 5565 5560 5556 5555 5554 5556 5558 5558 5559 5559 5558 5557 5559 5562 5563
5617 5613 5611 5607 5603 5600 5597 5594 5590 5585 5582 5578 5575 5572 5569 5567 5565 5562 5558 5555 5554 5554 5554 5552 5547 5545 5545 5547 5545 5546 5548 5549 5549 5548 5547 5549 5555 5558
5605 5603 5599 5596 5592 5589 5585 5582 5578 5574 5570 5566 5562 5559 5556 5553 5550 5548 5545 5543 5542 5541 5540 5537 5533 5531 5533 5540 5544 5536 5535 5538 5538 5539 5540 5542 5547 5552
5594 5592 5588 5585 5581 5577 5574 5570 5566 5562 5558 5554 5550 5547 5543 5540 5538 5535 5533 5530 5529 5528 5528 5526 5523 5520 5520 5525 5531 5532 5526 5526 5528 5532 5535 5537 5541 5544
5584 5580 5576 5573 5569 5565 5561 5557 5553 5550 5546 5542 5539 5535 5531 5527 5525 5522 5520 5518 5515 5516 5517 5518 5516 5512 5511 5512 5517 5525 5525 5521 5521 5523 5527 5529 5534 5538
5572 5568 5564 5560 5556 5552 5548 5544 5541 5538 5535 5531 5527 5523 5519 5516 5513 5511 5510 5509 5508 5508 5508 5509 5508 5505 5504 5505 5510 5516 5520 5520 5519 5518 5519 5522 5525 5533
5559 5555 5551 5547 5544 5540 5536 5532 5528 5526 5522 5519 5515 5511 5508 5505 5503 5501 5500 5499 5499 5499 5499 5500 5501 5500 5500 5500 5504 5508 5512 5514 5516 5518 5521 5522 5523 5526